iso_date,Year,Hour,Min,DOY,POS_DOY,Lat,Lon,BP,Ts,Ta,has_bp,has_ts,has_ta,BuoyID,Buoy_Type,Buoy_Owner,Logistics,Hemisphere
2021-11-23T16:02:03Z,2021,16,2,327.6681,327.6681,62.842,-61.931,-999.0,-0.43,-999.0,no,yes,no,300234068345300,SVPGHI,AOML,UNKNOWN,North
2021-11-23T17:03:59Z,2021,17,4,327.7111,327.7111,62.854,-61.909,-999.0,-0.43,-999.0,no,yes,no,300234068345300,SVPGHI,AOML,UNKNOWN,North
2021-11-23T18:01:00Z,2021,18,1,327.7507,327.7507,62.859,-61.885,-999.0,-0.43,-999.0,no,yes,no,300234068345300,SVPGHI,AOML,UNKNOWN,North
2021-11-23T19:03:04Z,2021,19,3,327.7938,327.7938,62.863,-61.856,-999.0,-0.44,-999.0,no,yes,no,300234068345300,SVPGHI,AOML,UNKNOWN,North
2021-11-23T20:00:57Z,2021,20,1,327.834,327.834,62.866,-61.84,-999.0,-0.45,-999.0,no,yes,no,300234068345300,SVPGHI,AOML,UNKNOWN,North
2021-11-23T21:00:00Z,2021,21,0,327.875,327.875,62.862,-61.824,-999.0,-0.45,-999.0,no,yes,no,300234068345300,SVPGHI,AOML,UNKNOWN,North
2021-11-23T22:00:02Z,2021,22,0,327.9167,327.9167,62.854,-61.82,-999.0,-0.45,-999.0,no,yes,no,300234068345300,SVPGHI,AOML,UNKNOWN,North
2021-11-23T22:59:57Z,2021,23,0,327.9583,327.9583,62.844,-61.83,-999.0,-0.45,-999.0,no,yes,no,300234068345300,SVPGHI,AOML,UNKNOWN,North
2021-11-24T00:00:00Z,2021,0,0,328.0,328.0,62.836,-61.839,-999.0,-0.45,-999.0,no,yes,no,300234068345300,SVPGHI,AOML,UNKNOWN,North
2021-11-24T01:03:56Z,2021,1,4,328.0444,328.0444,62.829,-61.838,-999.0,-0.46,-999.0,no,yes,no,300234068345300,SVPGHI,AOML,UNKNOWN,North
2021-11-24T01:03:56Z,2021,1,4,328.0444,328.0,62.829,-61.838,-999.0,-0.46,-999.0,no,yes,no,300234068345300,SVPGHI,AOML,UNKNOWN,North
2021-11-24T02:03:59Z,2021,2,4,328.0861,328.0861,62.828,-61.836,-999.0,-0.46,-999.0,no,yes,no,300234068345300,SVPGHI,AOML,UNKNOWN,North
2021-11-24T02:03:59Z,2021,2,4,328.0861,328.0,62.828,-61.836,-999.0,-0.46,-999.0,no,yes,no,300234068345300,SVPGHI,AOML,UNKNOWN,North
2021-11-24T03:04:01Z,2021,3,4,328.1278,328.1278,62.829,-61.814,-999.0,-0.44,-999.0,no,yes,no,300234068345300,SVPGHI,AOML,UNKNOWN,North
2021-11-24T03:04:01Z,2021,3,4,328.1278,328.0,62.829,-61.814,-999.0,-0.44,-999.0,no,yes,no,300234068345300,SVPGHI,AOML,UNKNOWN,North
2021-11-24T04:03:04Z,2021,4,3,328.1688,328.1688,62.83,-61.792,-999.0,-0.44,-999.0,no,yes,no,300234068345300,SVPGHI,AOML,UNKNOWN,North
2021-11-24T04:59:57Z,2021,5,0,328.2083,328.2083,62.828,-61.758,-999.0,-0.43,-999.0,no,yes,no,300234068345300,SVPGHI,AOML,UNKNOWN,North
2021-11-24T07:00:02Z,2021,7,0,328.2917,328.2917,62.813,-61.695,-999.0,-0.41,-999.0,no,yes,no,300234068345300,SVPGHI,AOML,UNKNOWN,North
2021-11-24T07:59:57Z,2021,8,0,328.3333,328.3333,62.799,-61.669,-999.0,-0.41,-999.0,no,yes,no,300234068345300,SVPGHI,AOML,UNKNOWN,North
2021-11-24T09:00:00Z,2021,9,0,328.375,328.375,62.781,-61.658,-999.0,-0.42,-999.0,no,yes,no,300234068345300,SVPGHI,AOML,UNKNOWN,North
2021-11-24T10:02:03Z,2021,10,2,328.4181,328.4181,62.76,-61.67,-999.0,-0.42,-999.0,no,yes,no,300234068345300,SVPGHI,AOML,UNKNOWN,North
2021-11-24T11:00:57Z,2021,11,1,328.459,328.459,62.741,-61.685,-999.0,-0.41,-999.0,no,yes,no,300234068345300,SVPGHI,AOML,UNKNOWN,North
2021-11-24T12:01:00Z,2021,12,1,328.5007,328.5007,62.727,-61.716,-999.0,-0.41,-999.0,no,yes,no,300234068345300,SVPGHI,AOML,UNKNOWN,North
2021-11-24T13:00:02Z,2021,13,0,328.5417,328.5417,62.718,-61.745,-999.0,-0.42,-999.0,no,yes,no,300234068345300,SVPGHI,AOML,UNKNOWN,North
2021-11-24T13:59:57Z,2021,14,0,328.5833,328.5833,62.715,-61.767,-999.0,-0.43,-999.0,no,yes,no,300234068345300,SVPGHI,AOML,UNKNOWN,North
2021-11-24T15:01:00Z,2021,15,1,328.6257,328.6257,62.717,-61.774,-999.0,-0.43,-999.0,no,yes,no,300234068345300,SVPGHI,AOML,UNKNOWN,North
2021-11-24T16:00:02Z,2021,16,0,328.6667,328.6667,62.719,-61.77,-999.0,-0.43,-999.0,no,yes,no,300234068345300,SVPGHI,AOML,UNKNOWN,North
2021-11-24T16:59:57Z,2021,17,0,328.7083,328.7083,62.72,-61.755,-999.0,-0.43,-999.0,no,yes,no,300234068345300,SVPGHI,AOML,UNKNOWN,North
2021-11-24T18:00:00Z,2021,18,0,328.75,328.75,62.719,-61.738,-999.0,-0.44,-999.0,no,yes,no,300234068345300,SVPGHI,AOML,UNKNOWN,North
2021-11-24T19:00:02Z,2021,19,0,328.7917,328.7917,62.715,-61.722,-999.0,-0.46,-999.0,no,yes,no,300234068345300,SVPGHI,AOML,UNKNOWN,North
2021-11-24T19:59:57Z,2021,20,0,328.8333,328.8333,62.709,-61.715,-999.0,-0.47,-999.0,no,yes,no,300234068345300,SVPGHI,AOML,UNKNOWN,North
2021-11-24T22:00:02Z,2021,22,0,328.9167,328.9167,62.696,-61.722,-999.0,-0.48,-999.0,no,yes,no,300234068345300,SVPGHI,AOML,UNKNOWN,North
2021-11-24T22:59:57Z,2021,23,0,328.9583,328.9583,62.686,-61.737,-999.0,-0.48,-999.0,no,yes,no,300234068345300,SVPGHI,AOML,UNKNOWN,North
2021-11-25T00:00:00Z,2021,0,0,329.0,329.0,62.68,-61.757,-999.0,-0.49,-999.0,no,yes,no,300234068345300,SVPGHI,AOML,UNKNOWN,North
2021-11-25T01:01:03Z,2021,1,1,329.0424,329.0424,62.676,-61.772,-999.0,-0.48,-999.0,no,yes,no,300234068345300,SVPGHI,AOML,UNKNOWN,North
2021-11-25T01:59:57Z,2021,2,0,329.0833,329.0833,62.672,-61.776,-999.0,-0.48,-999.0,no,yes,no,300234068345300,SVPGHI,AOML,UNKNOWN,North
2021-11-25T03:00:00Z,2021,3,0,329.125,329.125,62.669,-61.768,-999.0,-0.48,-999.0,no,yes,no,300234068345300,SVPGHI,AOML,UNKNOWN,North
2021-11-25T04:00:02Z,2021,4,0,329.1667,329.1667,62.664,-61.753,-999.0,-0.47,-999.0,no,yes,no,300234068345300,SVPGHI,AOML,UNKNOWN,North
2021-11-25T04:59:57Z,2021,5,0,329.2083,329.2083,62.657,-61.729,-999.0,-0.47,-999.0,no,yes,no,300234068345300,SVPGHI,AOML,UNKNOWN,North
2021-11-25T06:00:00Z,2021,6,0,329.25,329.25,62.65,-61.705,-999.0,-0.48,-999.0,no,yes,no,300234068345300,SVPGHI,AOML,UNKNOWN,North
2021-11-25T07:00:02Z,2021,7,0,329.2917,329.2917,62.641,-61.681,-999.0,-0.48,-999.0,no,yes,no,300234068345300,SVPGHI,AOML,UNKNOWN,North
2021-11-25T07:59:57Z,2021,8,0,329.3333,329.3333,62.626,-61.664,-999.0,-0.48,-999.0,no,yes,no,300234068345300,SVPGHI,AOML,UNKNOWN,North
2021-11-25T09:00:00Z,2021,9,0,329.375,329.375,62.609,-61.654,-999.0,-0.48,-999.0,no,yes,no,300234068345300,SVPGHI,AOML,UNKNOWN,North
2021-11-25T10:00:02Z,2021,10,0,329.4167,329.4167,62.594,-61.656,-999.0,-0.48,-999.0,no,yes,no,300234068345300,SVPGHI,AOML,UNKNOWN,North
2021-11-25T10:59:57Z,2021,11,0,329.4583,329.4583,62.577,-61.671,-999.0,-0.49,-999.0,no,yes,no,300234068345300,SVPGHI,AOML,UNKNOWN,North
2021-11-25T12:00:00Z,2021,12,0,329.5,329.5,62.564,-61.695,-999.0,-0.49,-999.0,no,yes,no,300234068345300,SVPGHI,AOML,UNKNOWN,North
2021-11-25T13:00:02Z,2021,13,0,329.5417,329.5417,62.557,-61.718,-999.0,-0.51,-999.0,no,yes,no,300234068345300,SVPGHI,AOML,UNKNOWN,North
2021-11-25T13:59:57Z,2021,14,0,329.5833,329.5833,62.55,-61.736,-999.0,-0.5,-999.0,no,yes,no,300234068345300,SVPGHI,AOML,UNKNOWN,North
2021-11-25T15:00:00Z,2021,15,0,329.625,329.625,62.547,-61.745,-999.0,-0.5,-999.0,no,yes,no,300234068345300,SVPGHI,AOML,UNKNOWN,North
2021-11-25T16:03:56Z,2021,16,4,329.6694,329.625,62.544,-61.75,-999.0,-0.5,-999.0,no,yes,no,300234068345300,SVPGHI,AOML,UNKNOWN,North
2021-11-25T16:59:57Z,2021,17,0,329.7083,329.7083,62.542,-61.744,-999.0,-0.5,-999.0,no,yes,no,300234068345300,SVPGHI,AOML,UNKNOWN,North
2021-11-25T18:00:00Z,2021,18,0,329.75,329.75,62.541,-61.731,-999.0,-0.5,-999.0,no,yes,no,300234068345300,SVPGHI,AOML,UNKNOWN,North
2021-11-25T19:01:03Z,2021,19,1,329.7924,329.7924,62.538,-61.717,-999.0,-0.5,-999.0,no,yes,no,300234068345300,SVPGHI,AOML,UNKNOWN,North
2021-11-25T19:59:57Z,2021,20,0,329.8333,329.8333,62.53,-61.707,-999.0,-0.5,-999.0,no,yes,no,300234068345300,SVPGHI,AOML,UNKNOWN,North
2021-11-25T21:00:00Z,2021,21,0,329.875,329.875,62.522,-61.705,-999.0,-0.5,-999.0,no,yes,no,300234068345300,SVPGHI,AOML,UNKNOWN,North
2021-11-25T22:00:02Z,2021,22,0,329.9167,329.9167,62.515,-61.709,-999.0,-0.5,-999.0,no,yes,no,300234068345300,SVPGHI,AOML,UNKNOWN,North
2021-11-25T22:59:57Z,2021,23,0,329.9583,329.9583,62.509,-61.719,-999.0,-0.51,-999.0,no,yes,no,300234068345300,SVPGHI,AOML,UNKNOWN,North
2021-11-26T00:00:00Z,2021,0,0,330.0,330.0,62.502,-61.729,-999.0,-0.5,-999.0,no,yes,no,300234068345300,SVPGHI,AOML,UNKNOWN,North
2021-11-26T01:00:02Z,2021,1,0,330.0417,330.0417,62.491,-61.739,-999.0,-0.51,-999.0,no,yes,no,300234068345300,SVPGHI,AOML,UNKNOWN,North
2021-11-26T01:59:57Z,2021,2,0,330.0833,330.0833,62.482,-61.75,-999.0,-0.52,-999.0,no,yes,no,300234068345300,SVPGHI,AOML,UNKNOWN,North
2021-11-26T03:00:00Z,2021,3,0,330.125,330.125,62.476,-61.755,-999.0,-0.53,-999.0,no,yes,no,300234068345300,SVPGHI,AOML,UNKNOWN,North
2021-11-26T04:00:02Z,2021,4,0,330.1667,330.1667,62.467,-61.753,-999.0,-0.53,-999.0,no,yes,no,300234068345300,SVPGHI,AOML,UNKNOWN,North
2021-11-26T05:01:58Z,2021,5,2,330.2097,330.2097,62.456,-61.749,-999.0,-0.62,-999.0,no,yes,no,300234068345300,SVPGHI,AOML,UNKNOWN,North
2021-11-26T06:00:00Z,2021,6,0,330.25,330.25,62.446,-61.738,-999.0,-0.57,-999.0,no,yes,no,300234068345300,SVPGHI,AOML,UNKNOWN,North
2021-11-26T07:00:02Z,2021,7,0,330.2917,330.2917,62.434,-61.721,-999.0,-0.57,-999.0,no,yes,no,300234068345300,SVPGHI,AOML,UNKNOWN,North
2021-11-26T07:59:57Z,2021,8,0,330.3333,330.3333,62.421,-61.706,-999.0,-0.55,-999.0,no,yes,no,300234068345300,SVPGHI,AOML,UNKNOWN,North
2021-11-26T09:00:00Z,2021,9,0,330.375,330.375,62.409,-61.703,-999.0,-0.57,-999.0,no,yes,no,300234068345300,SVPGHI,AOML,UNKNOWN,North
2021-11-26T10:00:02Z,2021,10,0,330.4167,330.4167,62.397,-61.707,-999.0,-0.57,-999.0,no,yes,no,300234068345300,SVPGHI,AOML,UNKNOWN,North
2021-11-26T10:59:57Z,2021,11,0,330.4583,330.4583,62.388,-61.715,-999.0,-0.56,-999.0,no,yes,no,300234068345300,SVPGHI,AOML,UNKNOWN,North
2021-11-26T13:00:02Z,2021,13,0,330.5417,330.5417,62.376,-61.741,-999.0,-0.63,-999.0,no,yes,no,300234068345300,SVPGHI,AOML,UNKNOWN,North
2021-11-26T13:59:57Z,2021,14,0,330.5833,330.5833,62.369,-61.749,-999.0,-0.54,-999.0,no,yes,no,300234068345300,SVPGHI,AOML,UNKNOWN,North
2021-11-26T15:00:00Z,2021,15,0,330.625,330.625,62.359,-61.757,-999.0,-0.55,-999.0,no,yes,no,300234068345300,SVPGHI,AOML,UNKNOWN,North
2021-11-26T16:00:02Z,2021,16,0,330.6667,330.6667,62.348,-61.768,-999.0,-0.54,-999.0,no,yes,no,300234068345300,SVPGHI,AOML,UNKNOWN,North
2021-11-26T16:59:57Z,2021,17,0,330.7083,330.7083,62.338,-61.778,-999.0,-0.53,-999.0,no,yes,no,300234068345300,SVPGHI,AOML,UNKNOWN,North
2021-11-26T18:00:00Z,2021,18,0,330.75,330.75,62.329,-61.791,-999.0,-0.53,-999.0,no,yes,no,300234068345300,SVPGHI,AOML,UNKNOWN,North
2021-11-26T19:00:02Z,2021,19,0,330.7917,330.7917,62.325,-61.804,-999.0,-0.54,-999.0,no,yes,no,300234068345300,SVPGHI,AOML,UNKNOWN,North
2021-11-26T19:59:57Z,2021,20,0,330.8333,330.8333,62.325,-61.811,-999.0,-0.54,-999.0,no,yes,no,300234068345300,SVPGHI,AOML,UNKNOWN,North
2021-11-26T21:00:00Z,2021,21,0,330.875,330.875,62.329,-61.815,-999.0,-0.53,-999.0,no,yes,no,300234068345300,SVPGHI,AOML,UNKNOWN,North
2021-11-26T22:00:02Z,2021,22,0,330.9167,330.9167,62.333,-61.818,-999.0,-0.53,-999.0,no,yes,no,300234068345300,SVPGHI,AOML,UNKNOWN,North
2021-11-26T22:59:57Z,2021,23,0,330.9583,330.9583,62.334,-61.821,-999.0,-0.52,-999.0,no,yes,no,300234068345300,SVPGHI,AOML,UNKNOWN,North
2021-11-27T00:03:01Z,2021,0,3,331.0021,331.0021,62.328,-61.831,-999.0,-0.52,-999.0,no,yes,no,300234068345300,SVPGHI,AOML,UNKNOWN,North
2021-11-27T01:00:02Z,2021,1,0,331.0417,331.0417,62.32,-61.85,-999.0,-0.52,-999.0,no,yes,no,300234068345300,SVPGHI,AOML,UNKNOWN,North
2021-11-27T01:59:57Z,2021,2,0,331.0833,331.0833,62.31,-61.877,-999.0,-0.52,-999.0,no,yes,no,300234068345300,SVPGHI,AOML,UNKNOWN,North
2021-11-27T03:02:00Z,2021,3,2,331.1264,331.1264,62.302,-61.904,-999.0,-0.52,-999.0,no,yes,no,300234068345300,SVPGHI,AOML,UNKNOWN,North
2021-11-27T04:00:02Z,2021,4,0,331.1667,331.1667,62.298,-61.928,-999.0,-0.51,-999.0,no,yes,no,300234068345300,SVPGHI,AOML,UNKNOWN,North
2021-11-27T04:59:57Z,2021,5,0,331.2083,331.2083,62.29,-61.95,-999.0,-0.52,-999.0,no,yes,no,300234068345300,SVPGHI,AOML,UNKNOWN,North
2021-11-27T06:00:00Z,2021,6,0,331.25,331.25,62.287,-61.968,-999.0,-0.52,-999.0,no,yes,no,300234068345300,SVPGHI,AOML,UNKNOWN,North
2021-11-27T07:00:02Z,2021,7,0,331.2917,331.2917,62.288,-61.977,-999.0,-0.51,-999.0,no,yes,no,300234068345300,SVPGHI,AOML,UNKNOWN,North
2021-11-27T07:59:57Z,2021,8,0,331.3333,331.3333,62.287,-61.983,-999.0,-0.51,-999.0,no,yes,no,300234068345300,SVPGHI,AOML,UNKNOWN,North
2021-11-27T09:00:00Z,2021,9,0,331.375,331.375,62.285,-61.983,-999.0,-0.51,-999.0,no,yes,no,300234068345300,SVPGHI,AOML,UNKNOWN,North
2021-11-27T10:00:02Z,2021,10,0,331.4167,331.4167,62.283,-61.995,-999.0,-0.51,-999.0,no,yes,no,300234068345300,SVPGHI,AOML,UNKNOWN,North
2021-11-27T13:00:02Z,2021,13,0,331.5417,331.5417,62.264,-62.06,-999.0,-0.48,-999.0,no,yes,no,300234068345300,SVPGHI,AOML,UNKNOWN,North
2021-11-27T13:59:57Z,2021,14,0,331.5833,331.5833,62.258,-62.098,-999.0,-0.48,-999.0,no,yes,no,300234068345300,SVPGHI,AOML,UNKNOWN,North
2021-11-27T15:00:00Z,2021,15,0,331.625,331.625,62.254,-62.144,-999.0,-0.48,-999.0,no,yes,no,300234068345300,SVPGHI,AOML,UNKNOWN,North
2021-11-27T16:00:02Z,2021,16,0,331.6667,331.6667,62.251,-62.188,-999.0,-0.47,-999.0,no,yes,no,300234068345300,SVPGHI,AOML,UNKNOWN,North
2021-11-27T16:59:57Z,2021,17,0,331.7083,331.7083,62.253,-62.228,-999.0,-0.44,-999.0,no,yes,no,300234068345300,SVPGHI,AOML,UNKNOWN,North
2021-11-27T18:00:00Z,2021,18,0,331.75,331.75,62.256,-62.26,-999.0,-0.43,-999.0,no,yes,no,300234068345300,SVPGHI,AOML,UNKNOWN,North
2021-11-27T19:01:03Z,2021,19,1,331.7924,331.7924,62.265,-62.286,-999.0,-0.41,-999.0,no,yes,no,300234068345300,SVPGHI,AOML,UNKNOWN,North
2021-11-27T19:59:57Z,2021,20,0,331.8333,331.8333,62.273,-62.304,-999.0,-0.4,-999.0,no,yes,no,300234068345300,SVPGHI,AOML,UNKNOWN,North
2021-11-27T21:01:00Z,2021,21,1,331.8757,331.8757,62.278,-62.315,-999.0,-0.39,-999.0,no,yes,no,300234068345300,SVPGHI,AOML,UNKNOWN,North
2021-11-27T22:00:02Z,2021,22,0,331.9167,331.9167,62.284,-62.324,-999.0,-0.39,-999.0,no,yes,no,300234068345300,SVPGHI,AOML,UNKNOWN,North
2021-11-27T23:00:57Z,2021,23,1,331.959,331.959,62.285,-62.341,-999.0,-0.39,-999.0,no,yes,no,300234068345300,SVPGHI,AOML,UNKNOWN,North
2021-11-28T00:03:01Z,2021,0,3,332.0021,332.0021,62.284,-62.364,-999.0,-0.39,-999.0,no,yes,no,300234068345300,SVPGHI,AOML,UNKNOWN,North
2021-11-28T01:00:02Z,2021,1,0,332.0417,332.0417,62.281,-62.391,-999.0,-0.39,-999.0,no,yes,no,300234068345300,SVPGHI,AOML,UNKNOWN,North
2021-11-28T01:59:57Z,2021,2,0,332.0833,332.0833,62.277,-62.427,-999.0,-0.39,-999.0,no,yes,no,300234068345300,SVPGHI,AOML,UNKNOWN,North
2021-11-28T03:00:00Z,2021,3,0,332.125,332.125,62.275,-62.469,-999.0,-0.39,-999.0,no,yes,no,300234068345300,SVPGHI,AOML,UNKNOWN,North
2021-11-28T04:03:04Z,2021,4,3,332.1688,332.1688,62.274,-62.503,-999.0,-0.39,-999.0,no,yes,no,300234068345300,SVPGHI,AOML,UNKNOWN,North
2021-11-28T04:59:57Z,2021,5,0,332.2083,332.2083,62.273,-62.534,-999.0,-0.39,-999.0,no,yes,no,300234068345300,SVPGHI,AOML,UNKNOWN,North
2021-11-28T06:00:00Z,2021,6,0,332.25,332.25,62.272,-62.564,-999.0,-0.39,-999.0,no,yes,no,300234068345300,SVPGHI,AOML,UNKNOWN,North
2021-11-28T07:00:02Z,2021,7,0,332.2917,332.2917,62.273,-62.588,-999.0,-0.4,-999.0,no,yes,no,300234068345300,SVPGHI,AOML,UNKNOWN,North
2021-11-28T07:59:57Z,2021,8,0,332.3333,332.3333,62.276,-62.608,-999.0,-0.4,-999.0,no,yes,no,300234068345300,SVPGHI,AOML,UNKNOWN,North
2021-11-28T09:00:00Z,2021,9,0,332.375,332.375,62.279,-62.613,-999.0,-0.4,-999.0,no,yes,no,300234068345300,SVPGHI,AOML,UNKNOWN,North
2021-11-28T10:01:03Z,2021,10,1,332.4174,332.4174,62.282,-62.616,-999.0,-0.4,-999.0,no,yes,no,300234068345300,SVPGHI,AOML,UNKNOWN,North
2021-11-28T12:00:00Z,2021,12,0,332.5,332.5,62.27,-62.622,-999.0,-0.4,-999.0,no,yes,no,300234068345300,SVPGHI,AOML,UNKNOWN,North
2021-11-28T13:00:02Z,2021,13,0,332.5417,332.5417,62.262,-62.638,-999.0,-0.41,-999.0,no,yes,no,300234068345300,SVPGHI,AOML,UNKNOWN,North
2021-11-28T13:59:57Z,2021,14,0,332.5833,332.5833,62.25,-62.666,-999.0,-0.41,-999.0,no,yes,no,300234068345300,SVPGHI,AOML,UNKNOWN,North
2021-11-28T15:00:00Z,2021,15,0,332.625,332.625,62.242,-62.711,-999.0,-0.41,-999.0,no,yes,no,300234068345300,SVPGHI,AOML,UNKNOWN,North
2021-11-28T17:00:57Z,2021,17,1,332.709,332.709,62.226,-62.802,-999.0,-0.41,-999.0,no,yes,no,300234068345300,SVPGHI,AOML,UNKNOWN,North
2021-11-28T18:00:00Z,2021,18,0,332.75,332.75,62.224,-62.843,-999.0,-0.42,-999.0,no,yes,no,300234068345300,SVPGHI,AOML,UNKNOWN,North
2021-11-28T19:00:02Z,2021,19,0,332.7917,332.7917,62.229,-62.884,-999.0,-0.42,-999.0,no,yes,no,300234068345300,SVPGHI,AOML,UNKNOWN,North
2021-11-28T20:01:58Z,2021,20,2,332.8347,332.8347,62.233,-62.908,-999.0,-0.42,-999.0,no,yes,no,300234068345300,SVPGHI,AOML,UNKNOWN,North
2021-11-28T21:00:00Z,2021,21,0,332.875,332.875,62.239,-62.911,-999.0,-0.41,-999.0,no,yes,no,300234068345300,SVPGHI,AOML,UNKNOWN,North
2021-11-28T22:59:57Z,2021,23,0,332.9583,332.9583,62.24,-62.907,-999.0,-0.42,-999.0,no,yes,no,300234068345300,SVPGHI,AOML,UNKNOWN,North
2021-11-29T00:00:00Z,2021,0,0,333.0,333.0,62.235,-62.913,-999.0,-0.42,-999.0,no,yes,no,300234068345300,SVPGHI,AOML,UNKNOWN,North
2021-11-29T02:00:57Z,2021,2,1,333.084,333.084,62.229,-62.95,-999.0,-0.38,-999.0,no,yes,no,300234068345300,SVPGHI,AOML,UNKNOWN,North
2021-11-29T03:00:00Z,2021,3,0,333.125,333.125,62.224,-62.979,-999.0,-0.39,-999.0,no,yes,no,300234068345300,SVPGHI,AOML,UNKNOWN,North
2021-11-29T04:01:03Z,2021,4,1,333.1674,333.1674,62.219,-63.008,-999.0,-0.4,-999.0,no,yes,no,300234068345300,SVPGHI,AOML,UNKNOWN,North
2021-11-29T04:59:57Z,2021,5,0,333.2083,333.2083,62.212,-63.04,-999.0,-0.42,-999.0,no,yes,no,300234068345300,SVPGHI,AOML,UNKNOWN,North
2021-11-29T06:00:00Z,2021,6,0,333.25,333.25,62.209,-63.069,-999.0,-0.42,-999.0,no,yes,no,300234068345300,SVPGHI,AOML,UNKNOWN,North
2021-11-29T07:01:03Z,2021,7,1,333.2924,333.2924,62.209,-63.092,-999.0,-0.45,-999.0,no,yes,no,300234068345300,SVPGHI,AOML,UNKNOWN,North
2021-11-29T08:01:58Z,2021,8,2,333.3347,333.3347,62.202,-63.093,-999.0,-0.45,-999.0,no,yes,no,300234068345300,SVPGHI,AOML,UNKNOWN,North
2021-11-29T09:00:00Z,2021,9,0,333.375,333.375,62.196,-63.096,-999.0,-0.45,-999.0,no,yes,no,300234068345300,SVPGHI,AOML,UNKNOWN,North
2021-11-29T10:00:02Z,2021,10,0,333.4167,333.4167,62.19,-63.093,-999.0,-0.45,-999.0,no,yes,no,300234068345300,SVPGHI,AOML,UNKNOWN,North
2021-11-29T10:59:57Z,2021,11,0,333.4583,333.4583,62.183,-63.095,-999.0,-0.44,-999.0,no,yes,no,300234068345300,SVPGHI,AOML,UNKNOWN,North
2021-11-29T12:00:00Z,2021,12,0,333.5,333.5,62.176,-63.1,-999.0,-0.44,-999.0,no,yes,no,300234068345300,SVPGHI,AOML,UNKNOWN,North
2021-11-29T13:00:02Z,2021,13,0,333.5417,333.5417,62.172,-63.114,-999.0,-0.44,-999.0,no,yes,no,300234068345300,SVPGHI,AOML,UNKNOWN,North
2021-11-29T14:00:57Z,2021,14,1,333.584,333.584,62.168,-63.136,-999.0,-0.43,-999.0,no,yes,no,300234068345300,SVPGHI,AOML,UNKNOWN,North
2021-11-29T15:01:00Z,2021,15,1,333.6257,333.6257,62.163,-63.163,-999.0,-0.43,-999.0,no,yes,no,300234068345300,SVPGHI,AOML,UNKNOWN,North
2021-11-29T16:00:02Z,2021,16,0,333.6667,333.6667,62.159,-63.197,-999.0,-0.43,-999.0,no,yes,no,300234068345300,SVPGHI,AOML,UNKNOWN,North
2021-11-29T16:59:57Z,2021,17,0,333.7083,333.7083,62.158,-63.232,-999.0,-0.43,-999.0,no,yes,no,300234068345300,SVPGHI,AOML,UNKNOWN,North
2021-11-29T18:01:00Z,2021,18,1,333.7507,333.7507,62.154,-63.257,-999.0,-0.44,-999.0,no,yes,no,300234068345300,SVPGHI,AOML,UNKNOWN,North
2021-11-29T19:00:02Z,2021,19,0,333.7917,333.7917,62.151,-63.279,-999.0,-0.44,-999.0,no,yes,no,300234068345300,SVPGHI,AOML,UNKNOWN,North
2021-11-29T19:59:57Z,2021,20,0,333.8333,333.8333,62.145,-63.292,-999.0,-0.44,-999.0,no,yes,no,300234068345300,SVPGHI,AOML,UNKNOWN,North
2021-11-29T21:01:00Z,2021,21,1,333.8757,333.8757,62.139,-63.299,-999.0,-0.44,-999.0,no,yes,no,300234068345300,SVPGHI,AOML,UNKNOWN,North
2021-11-29T22:03:56Z,2021,22,4,333.9194,333.9194,62.135,-63.3,-999.0,-0.45,-999.0,no,yes,no,300234068345300,SVPGHI,AOML,UNKNOWN,North
2021-11-29T22:03:56Z,2021,22,4,333.9194,333.8757,62.135,-63.3,-999.0,-0.45,-999.0,no,yes,no,300234068345300,SVPGHI,AOML,UNKNOWN,North
2021-11-29T22:59:57Z,2021,23,0,333.9583,333.9583,62.131,-63.301,-999.0,-0.45,-999.0,no,yes,no,300234068345300,SVPGHI,AOML,UNKNOWN,North
2021-11-30T00:00:00Z,2021,0,0,334.0,334.0,62.127,-63.303,-999.0,-0.45,-999.0,no,yes,no,300234068345300,SVPGHI,AOML,UNKNOWN,North
2021-11-30T01:00:02Z,2021,1,0,334.0417,334.0417,62.124,-63.312,-999.0,-0.45,-999.0,no,yes,no,300234068345300,SVPGHI,AOML,UNKNOWN,North
2021-11-30T02:00:57Z,2021,2,1,334.084,334.084,62.118,-63.324,-999.0,-0.46,-999.0,no,yes,no,300234068345300,SVPGHI,AOML,UNKNOWN,North
2021-11-30T03:00:00Z,2021,3,0,334.125,334.125,62.118,-63.352,-999.0,-0.46,-999.0,no,yes,no,300234068345300,SVPGHI,AOML,UNKNOWN,North
2021-11-30T04:02:03Z,2021,4,2,334.1681,334.1681,62.109,-63.38,-999.0,-0.47,-999.0,no,yes,no,300234068345300,SVPGHI,AOML,UNKNOWN,North
2021-11-30T05:03:59Z,2021,5,4,334.2111,334.2111,62.102,-63.416,-999.0,-0.46,-999.0,no,yes,no,300234068345300,SVPGHI,AOML,UNKNOWN,North
2021-11-30T05:03:59Z,2021,5,4,334.2111,334.168,62.102,-63.416,-999.0,-0.46,-999.0,no,yes,no,300234068345300,SVPGHI,AOML,UNKNOWN,North
2021-11-30T06:04:01Z,2021,6,4,334.2528,334.2528,-90.0,-180.0,-999.0,-0.46,-999.0,no,yes,no,300234068345300,SVPGHI,AOML,UNKNOWN,North
2021-11-30T06:04:01Z,2021,6,4,334.2528,334.1681,-90.0,-180.0,-999.0,-0.46,-999.0,no,yes,no,300234068345300,SVPGHI,AOML,UNKNOWN,North
2021-11-30T07:03:04Z,2021,7,3,334.2938,334.2938,62.081,-63.48,-999.0,-0.42,-999.0,no,yes,no,300234068345300,SVPGHI,AOML,UNKNOWN,North
2021-11-30T07:59:57Z,2021,8,0,334.3333,334.3333,62.07,-63.505,-999.0,-0.37,-999.0,no,yes,no,300234068345300,SVPGHI,AOML,UNKNOWN,North
2021-11-30T09:00:00Z,2021,9,0,334.375,334.375,62.059,-63.526,-999.0,-0.39,-999.0,no,yes,no,300234068345300,SVPGHI,AOML,UNKNOWN,North
2021-11-30T10:00:02Z,2021,10,0,334.4167,334.4167,62.051,-63.546,-999.0,-0.36,-999.0,no,yes,no,300234068345300,SVPGHI,AOML,UNKNOWN,North
2021-11-30T12:00:00Z,2021,12,0,334.5,334.5,62.043,-63.55,-999.0,-0.59,-999.0,no,yes,no,300234068345300,SVPGHI,AOML,UNKNOWN,North
2021-11-30T13:00:02Z,2021,13,0,334.5417,334.5417,62.035,-63.54,-999.0,-0.62,-999.0,no,yes,no,300234068345300,SVPGHI,AOML,UNKNOWN,North
2021-11-30T14:03:59Z,2021,14,4,334.5861,334.5861,62.022,-63.541,-999.0,-0.65,-999.0,no,yes,no,300234068345300,SVPGHI,AOML,UNKNOWN,North
2021-11-30T15:00:00Z,2021,15,0,334.625,334.625,62.01,-63.551,-999.0,-0.69,-999.0,no,yes,no,300234068345300,SVPGHI,AOML,UNKNOWN,North
2021-11-30T16:03:04Z,2021,16,3,334.6688,334.6688,61.996,-63.58,-999.0,-0.62,-999.0,no,yes,no,300234068345300,SVPGHI,AOML,UNKNOWN,North
2021-11-30T16:59:57Z,2021,17,0,334.7083,334.7083,61.986,-63.611,-999.0,-0.59,-999.0,no,yes,no,300234068345300,SVPGHI,AOML,UNKNOWN,North
2021-11-30T18:00:00Z,2021,18,0,334.75,334.75,61.976,-63.643,-999.0,-0.6,-999.0,no,yes,no,300234068345300,SVPGHI,AOML,UNKNOWN,North
2021-11-30T19:00:02Z,2021,19,0,334.7917,334.7917,61.965,-63.669,-999.0,-0.58,-999.0,no,yes,no,300234068345300,SVPGHI,AOML,UNKNOWN,North
2021-11-30T19:59:57Z,2021,20,0,334.8333,334.8333,61.955,-63.692,-999.0,-0.5,-999.0,no,yes,no,300234068345300,SVPGHI,AOML,UNKNOWN,North
2021-11-30T21:03:01Z,2021,21,3,334.8771,334.8771,61.946,-63.706,-999.0,-0.6,-999.0,no,yes,no,300234068345300,SVPGHI,AOML,UNKNOWN,North
2021-11-30T22:00:02Z,2021,22,0,334.9167,334.9167,61.941,-63.711,-999.0,-0.55,-999.0,no,yes,no,300234068345300,SVPGHI,AOML,UNKNOWN,North
2021-11-30T22:59:57Z,2021,23,0,334.9583,334.9583,61.941,-63.703,-999.0,-0.52,-999.0,no,yes,no,300234068345300,SVPGHI,AOML,UNKNOWN,North
2021-12-01T00:00:00Z,2021,0,0,335.0,335.0,61.941,-63.677,-999.0,-0.55,-999.0,no,yes,no,300234068345300,SVPGHI,AOML,UNKNOWN,North
2021-12-01T01:00:02Z,2021,1,0,335.0417,335.0417,61.939,-63.649,-999.0,-0.52,-999.0,no,yes,no,300234068345300,SVPGHI,AOML,UNKNOWN,North
2021-12-01T01:59:57Z,2021,2,0,335.0833,335.0833,61.934,-63.625,-999.0,-0.45,-999.0,no,yes,no,300234068345300,SVPGHI,AOML,UNKNOWN,North
2021-12-01T03:00:00Z,2021,3,0,335.125,335.125,61.928,-63.615,-999.0,-0.4,-999.0,no,yes,no,300234068345300,SVPGHI,AOML,UNKNOWN,North
2021-12-01T04:00:02Z,2021,4,0,335.1667,335.1667,61.921,-63.621,-999.0,-0.38,-999.0,no,yes,no,300234068345300,SVPGHI,AOML,UNKNOWN,North